Weather History for Cherry Point, NC

Change the Weather History Date:

Sunday, February 17, 2013

  Actual Average Record
Temperature  
Mean Temperature 32 °F -  
Max Temperature 39 °F 56 °F 73 °F (2006)
Min Temperature 25 °F 35 °F 17 °F (2007)
Degree Days  
Heating Degree Days 33    
Moisture  
Dew Point 22 °F    
Average Humidity 66    
Maximum Humidity 89    
Minimum Humidity 30    
Precipitation  
Precipitation 0.01 in - - ()
Sea Level Pressure  
Sea Level Pressure 30.02 in    
Wind  
Wind Speed 11 mph ()    
Max Wind Speed 21 mph    
Max Gust Speed 34 mph    
Visibility 8.0 miles    
Events Snow    
Averages and records for this station are not official NWS values.
T = Trace of Precipitation, MM = Missing Value Source: Averaged Metar Reports

Daily Weather History Graph

Daily Weather History Graph

Search for Another Location

Airport:

Trip Planner

Search our weather history database for the weather conditions in past years. The results will help you decide how hot, cold, wet, or windy it might be!

Date:

Astronomy

Feb. 17, 2013 Rise Set
Actual Time 6:50 AM EST 5:52 PM EST
Civil Twilight 6:25 AM EST 6:18 PM EST
Nautical Twilight 5:55 AM EST 6:47 PM EST
Astronomical Twilight 5:26 AM EST 7:17 PM EST
Moon 11:01 AM EST (2/17) 12:28 AM EST (2/17)
Length of Visible Light 11h 53m
Length of Day
11h 01m
Waxing Crescent, 49% of the Moon is Illuminated
Feb 17
Waxing Crescent
Feb 17
First Quarter
Feb 25
Full
Mar 4
Last Quarter
Mar 11
New

Hourly Weather History & Observations

Time (EST) Temp. Windchill Dew Point Humidity Pressure Visibility Wind Dir Wind Speed Gust Speed Precip Events Conditions
12:28 AM 35.6 °F 26.6 °F 30.2 °F 81% 29.86 in 5.0 mi NW 13.8 mph - 0.00 in Snow Light Snow
12:54 AM 34.0 °F 25.5 °F 30.9 °F 89% 29.86 in 3.0 mi NW 11.5 mph - 0.00 in Snow Light Snow
1:01 AM 33.8 °F 27.0 °F 30.2 °F 87% 29.87 in 3.0 mi WNW 8.1 mph - 0.00 in Snow Light Snow
1:05 AM 33.8 °F 25.8 °F 30.2 °F 87% 29.87 in 3.0 mi NW 10.4 mph - 0.00 in Snow Light Snow
1:15 AM 33.8 °F 25.3 °F 30.2 °F 87% 29.87 in 3.0 mi WNW 11.5 mph - 0.00 in Snow Light Snow
1:42 AM 33.8 °F 25.8 °F 30.2 °F 87% 29.88 in 3.0 mi NW 10.4 mph - 0.00 in Snow Light Snow
1:46 AM 33.8 °F 24.3 °F 30.2 °F 87% 29.88 in 2.5 mi NNW 13.8 mph 19.6 mph 0.01 in Snow Light Snow
1:54 AM 34.0 °F 23.8 °F 30.0 °F 85% 29.87 in 5.0 mi NNW 16.1 mph 26.5 mph 0.01 in Snow Light Snow
2:45 AM 33.8 °F 24.3 °F 28.4 °F 81% 29.90 in 8.0 mi NW 13.8 mph 26.5 mph 0.00 in   Overcast
2:54 AM 33.1 °F 23.9 °F 28.9 °F 85% 29.90 in 2.5 mi NW 12.7 mph - 0.00 in Snow Light Snow
3:07 AM 33.8 °F 24.8 °F 28.4 °F 81% 29.91 in 4.0 mi NW 12.7 mph 21.9 mph 0.00 in Snow Light Snow
3:54 AM 33.1 °F 23.9 °F 28.9 °F 85% 29.91 in 10.0 mi NW 12.7 mph - 0.00 in   Clear
4:54 AM 33.1 °F 23.4 °F 28.0 °F 82% 29.94 in 10.0 mi WNW 13.8 mph - N/A   Scattered Clouds
5:07 AM 33.8 °F 23.9 °F 28.4 °F 81% 29.95 in 10.0 mi WNW 15.0 mph 19.6 mph N/A   Mostly Cloudy
5:30 AM 32.0 °F 21.2 °F 26.6 °F 80% 29.96 in 10.0 mi WNW 16.1 mph - N/A   Scattered Clouds
5:54 AM 32.0 °F 22.5 °F 25.0 °F 75% 29.97 in 10.0 mi WNW 12.7 mph 23.0 mph N/A   Scattered Clouds
6:54 AM 30.9 °F 22.8 °F 24.1 °F 76% 30.00 in 10.0 mi West 9.2 mph - N/A   Partly Cloudy
7:54 AM 30.9 °F 19.8 °F 24.1 °F 76% 30.02 in 10.0 mi WNW 16.1 mph 20.7 mph N/A   Clear
8:54 AM 33.1 °F 22.6 °F 21.9 °F 64% 30.04 in 10.0 mi NW 16.1 mph 23.0 mph N/A   Partly Cloudy
9:54 AM 34.0 °F 22.7 °F 21.0 °F 59% 30.06 in 10.0 mi WNW 19.6 mph 26.5 mph N/A   Partly Cloudy
10:54 AM 36.0 °F 25.6 °F 17.1 °F 46% 30.08 in 10.0 mi WNW 18.4 mph 32.2 mph N/A   Scattered Clouds
11:54 AM 36.0 °F 25.0 °F 14.0 °F 41% 30.08 in 10.0 mi West 20.7 mph 31.1 mph N/A   Mostly Cloudy
12:54 PM 37.9 °F 28.2 °F 14.0 °F 38% 30.08 in 10.0 mi NW 18.4 mph 32.2 mph N/A   Overcast
1:54 PM 37.4 °F 27.2 °F 8.6 °F 30% 30.07 in 10.0 mi NW 19.6 mph 34.5 mph N/A   Mostly Cloudy
2:54 PM 39.0 °F 29.9 °F 10.9 °F 32% 30.08 in 10.0 mi NW 17.3 mph 26.5 mph N/A   Scattered Clouds
3:54 PM 37.9 °F 27.6 °F 9.0 °F 30% 30.10 in 10.0 mi WNW 20.7 mph 28.8 mph N/A   Partly Cloudy
4:54 PM 37.0 °F 28.1 °F 8.1 °F 30% 30.12 in 10.0 mi WNW 15.0 mph 26.5 mph N/A   Partly Cloudy
5:54 PM 36.0 °F 29.6 °F 8.1 °F 31% 30.15 in 10.0 mi WNW 8.1 mph - N/A   Clear
6:54 PM 34.0 °F 28.0 °F 10.0 °F 37% 30.17 in 10.0 mi WNW 6.9 mph - N/A   Clear
7:54 PM 33.1 °F 28.7 °F 10.9 °F 40% 30.20 in 10.0 mi WNW 4.6 mph - N/A   Clear
8:54 PM 28.9 °F - 14.0 °F 54% 30.22 in 10.0 mi Calm Calm - N/A   Clear
9:54 PM 27.0 °F - 17.1 °F 66% 30.26 in 10.0 mi Calm Calm - N/A   Clear
10:54 PM 25.0 °F - 19.0 °F 78% 30.28 in 10.0 mi Calm Calm - N/A   Clear
11:54 PM 27.0 °F - 18.0 °F 69% 30.29 in 10.0 mi Calm Calm - N/A   Clear